Flag for U.S.A. Weather past 2 weeks in Montgomery, Alabama, U.S.A.

Now
59 °F

Clear.


Feels Like: 58 °F
Forecast: 40 / 56 °F
Wind: 6 mph from West

Location: Maxwell Air Force Base / Montgomery

Current Time: Jan 29, 2015 at 11:21:20 PM

Latest Report: Jan 29, 2015 at 10:58 PM


Visibility: 10 mi

Pressure: 30.16 "Hg

Humidity: 75%

Dew point: 51 °F

Location of MontgomeryLocation

Historic Weather in Montgomery — Graph

°F

Montgomery temperature yesterday

Maximum temperature yesterday: 57 °F (at 3:58 PM)
Minimum temperature yesterday: 31 °F (at 6:58 AM)
Average temperature yesterday: 43 °F

Past Weeks' High & Low Weather Summary

 TemperatureHumidityPressure
High70 °F (Jan 19, 2:58 PM)100% (Jan 15, 12:03 PM)30.34 "Hg (Jan 15, 12:03 PM)
Low29 °F (Jan 19, 5:58 AM)19% (Jan 18, 2:58 PM)29.78 "Hg (Jan 25, 2:58 PM)
Average47 °F71%30.10 "Hg
* Reported Jan 14 9:03 PM — Jan 29 9:58 PM, Montgomery, Weather by CustomWeather, © 2014

Note: Actual official high and low records may vary slightly from our data, if they occured in-between our weather recording intervals... More about our weather records

Advertising

Montgomery weather history for previous 24 hours

 ConditionsComfort  
Time TempWeatherWind HumidityBarometerVisibility
9:58 PM
Jan 29
59 °FPassing clouds.6 mph73%30.15 "Hg10 mi
8:58 PM60 °FOvercast.6 mph70%30.14 "Hg10 mi
7:58 PM61 °FPassing clouds.7 mph68%30.14 "Hg10 mi
6:58 PM62 °FPassing clouds.5 mph60%30.14 "Hg10 mi
5:58 PM65 °FPassing clouds.7 mph54%30.13 "Hg10 mi
4:58 PM68 °FScattered clouds.9 mph47%30.12 "Hg10 mi
3:58 PM69 °FPassing clouds.12 mph43%30.13 "Hg10 mi
2:58 PM70 °FSunny.13 mph41%30.14 "Hg10 mi
1:58 PM69 °FSunny.9 mph39%30.17 "Hg10 mi
12:58 PM66 °FSunny.10 mph41%30.20 "Hg10 mi
11:58 AM63 °FSunny.8 mph46%30.24 "Hg10 mi
10:58 AM59 °FSunny.12 mph48%30.28 "Hg10 mi
9:58 AM51 °FSunny.7 mph56%30.32 "Hg10 mi
8:58 AM43 °FSunny.1 mph75%30.33 "Hg10 mi
7:58 AM39 °FSunny.5 mph91%30.32 "Hg10 mi
6:58 AM35 °FSunny.2 mph97%30.30 "Hg8 mi
5:58 AM35 °FClear.No wind96%30.29 "Hg10 mi
4:58 AM35 °FClear.1 mph95%30.29 "Hg10 mi
3:58 AM36 °FClear.No wind87%30.29 "Hg10 mi
2:58 AM37 °FClear.3 mph86%30.28 "Hg10 mi
1:58 AM38 °FClear.6 mph81%30.30 "Hg10 mi
12:58 AM41 °FClear.3 mph68%30.27 "Hg10 mi
11:58 PM
Jan 28
42 °FClear.6 mph70%30.25 "Hg10 mi
Weather by CustomWeather, © 2014

See weather overviewHow to use our weather pages